Vorticity
5 8 7 2 -1 -4 1 2 6 7 9 6 11 7 9 10 8 7 7 8 8 9
8 5 3 3 3 1 3 6 2 2 14 4 8 1 8 12 10 5 9 6 8 9
11 14 16 16 15 10 9 5 6 4 2 3 5 5 4 10 7 8 7 7 17 15
13 7 6 5 7 12 15 19 2 7 12 -1 1 5 3 4 5 5 3 25 5 -3
18 14 11 8 8 11 9 4 17 7 -1 2 5 6 9 6 -2 59 22 16 16 -9
12 13 12 8 11 9 7 5 9 11 11 4 7 4 3 4 15 10 25 -36 26 1
19 13 11 15 13 9 5 11 7 12 15 13 6 7 8 7 -8 -28 7 5 -3 11
24 27 30 16 12 11 6 7 11 10 14 13 10 9 6 2 -7 -13 -1 8 19 -8
23 20 18 13 10 5 11 23 11 16 12 9 11 22 -8 10 3 13 16 -2 16 23
16 30 29 33 41 36 25 15 12 10 12 7 9 1 8 20 2 17 0 10 -1 20
33 32 16 5 22 21 21 17 15 9 7 9 29 4 -9 16 22 16 5 -13 9 6
26 40 2 23 50 8 15 13 -5 12 3 1 -2 -6 28 13 -2 3 8 4 5 9
25 10 20 10 23 4 17 7 13 10 48 19 27 11 5 7 5 5 10 12 12 11
14 19 -2 21 2 17 -6 40 9 23 28 16 8 4 6 10 11 12 13 9 7 6
Height
5692 5693 5696 5700 5704 5708 5711 5713 5713 5712 5713 5715 5715 5715 5715 5715 5713 5713 5713 5711 5710 5707
5673 5676 5680 5684 5689 5693 5698 5702 5702 5701 5702 5704 5704 5704 5704 5704 5702 5702 5700 5699 5698 5696
5653 5657 5662 5668 5673 5678 5682 5686 5689 5689 5691 5693 5693 5694 5694 5693 5693 5692 5690 5689 5687 5684
5635 5639 5644 5650 5656 5662 5667 5672 5675 5677 5679 5681 5683 5684 5683 5682 5681 5682 5679 5678 5675 5674
5617 5622 5629 5636 5642 5648 5654 5657 5662 5665 5667 5670 5672 5674 5673 5673 5672 5667 5668 5666 5664 5663
5601 5608 5615 5621 5628 5635 5641 5644 5648 5653 5657 5660 5662 5663 5663 5663 5661 5662 5658 5654 5653 5651
5588 5595 5602 5609 5617 5624 5628 5633 5638 5644 5647 5650 5652 5653 5653 5651 5651 5647 5646 5644 5641 5636
5576 5582 5589 5597 5605 5610 5616 5622 5626 5632 5637 5640 5642 5642 5642 5641 5638 5636 5635 5633 5629 5623
5570 5575 5580 5588 5594 5600 5606 5612 5618 5624 5628 5631 5632 5633 5633 5631 5630 5627 5625 5621 5617 5611
5565 5569 5575 5581 5588 5594 5603 5607 5613 5618 5621 5622 5621 5621 5619 5617 5618 5616 5613 5609 5605 5599
5562 5567 5571 5573 5585 5591 5597 5602 5607 5610 5611 5614 5615 5612 5610 5610 5609 5606 5601 5598 5592 5586
5561 5567 5575 5580 5582 5591 5595 5599 5601 5603 5605 5604 5604 5604 5603 5602 5600 5596 5590 5585 5579 5573
5567 5573 5577 5581 5585 5587 5591 5595 5596 5597 5598 5598 5599 5597 5594 5592 5590 5586 5579 5573 5566 5558
5573 5576 5579 5580 5584 5586 5589 5591 5592 5592 5592 5592 5591 5590 5586 5583 5578 5572 5566 5559 5550 5541